Main page
METAR-TAF:

METAR-TAF

Airports :

Taos Regional Airport

Taos, New Mexico, United States

latitude: 36-27N, longitude: 105-40W, elevation: 7088 ft

Current weather observation

The report was made 48 minutes ago, at 11:56 UTC
Wind 6 mph from the East/Southeast
Temperature 34°F
Humidity 86%
Pressure 30.42 in. Hg
Visibility: 10 miles
Few clouds at a height of 1200 ft

METAR: KSKX 181156Z AUTO 12005KT 10SM FEW012 01/M01 A3042 RMK AO2 RAE02 SLP297 P0000 60000 T00061006 10044 20000 56006 FZRANO $

Time: 06:44 (12:44 UTC)


TAF: missing

Weather observations and forecasts of more than 4000 airports (METAR and TAF reports).

The available stations are represented by yellow and red dots on the map.

Hover mouse over dot to see the name of the station.

Then click to see weather observations and forecasts.

To change the map : click on the green buttons with a black cross to zoom in, on the green button with a dash to zoom out, or on the green arrows for adjacent maps.


METAR-TAF: